Flag for Germany Weather past 2 weeks in Düren, North Rhine-Westphalia, Germany

Now
70 °F

Mild.


Feels Like: 70 °F
Forecast: 59 / 77 °F
Wind: 1 mph from North

Location: Noervenich

Current Time: Jul 26, 2014 at 1:38:35 PM

Latest Report: Jul 26, 2014 at 12:20 PM


Visibility: 2 mi

Pressure: 29.95 "Hg

Humidity: 73%

Dew point: 61 °F

Location of DürenLocation

Historic Weather in Düren — Graph

°F

Düren temperature yesterday

Maximum temperature yesterday: 73 °F (at 3:20 PM)
Minimum temperature yesterday: 57 °F (at 4:20 AM)
Average temperature yesterday: 66 °F

Past Weeks' High & Low Weather Summary

 TemperatureHumidityPressure
High93 °F (Jul 18, 5:20 PM)100% (Jul 12, 8:20 AM)30.18 "Hg (Jul 12, 8:20 AM)
Low55 °F (Jul 14, 5:20 AM)28% (Jul 18, 5:20 PM)29.74 "Hg (Jul 13, 4:20 PM)
Average69 °F76%29.97 "Hg
* Reported Jul 11 12:20 PM — Jul 26 12:20 PM, Düren, Weather by CustomWeather, © 2014

Note: Actual official high and low records may vary slightly from our data, if they occured in-between our weather recording intervals... More about our weather records

Advertising

Düren weather history for previous 24 hours

 ConditionsComfort  
Time TempWeatherWind HumidityBarometerVisibility
12:20 PM
Jul 26
70 °FMild.1 mph73%29.95 "Hg2 mi
11:20 AM66 °FMild.1 mph83%29.95 "Hg2 mi
10:20 AM64 °FMild.1 mph94%29.95 "Hg2 mi
9:20 AM63 °FMild.3 mph94%29.95 "Hg1 mi
8:20 AM63 °FMild.3 mph94%29.95 "Hg1 mi
7:20 AM61 °FCool.3 mph100%29.92 "Hg0 mi
6:20 AM61 °FFog.1 mph100%29.92 "Hg1 mi
5:50 AM61 °FFog.3 mph100%29.92 "Hg1 mi
5:20 AM61 °FFog.3 mph100%29.92 "Hg1 mi
4:20 AM59 °FFog.3 mph100%29.92 "Hg2 mi
3:20 AM59 °FFog.5 mph100%29.92 "Hg2 mi
2:20 AM61 °FCool.6 mph94%29.92 "Hg5 mi
1:20 AM61 °FCool.3 mph94%29.92 "HgN/A
12:20 AM63 °FPassing clouds.3 mph88%29.92 "HgN/A
11:20 PM
Jul 25
64 °FPassing clouds.2 mph88%29.92 "HgN/A
10:20 PM66 °FPassing clouds.5 mph83%29.92 "HgN/A
9:20 PM68 °FScattered clouds.3 mph78%29.92 "HgN/A
8:20 PM70 °FScattered clouds.2 mph69%29.92 "HgN/A
7:20 PM72 °FScattered clouds.7 mph65%29.92 "HgN/A
6:20 PM73 °FPassing clouds.6 mph61%29.89 "HgN/A
5:20 PM73 °FScattered clouds.7 mph61%29.92 "HgN/A
4:20 PM73 °FScattered clouds.3 mph61%29.92 "HgN/A
3:20 PM73 °FScattered clouds.5 mph61%29.92 "HgN/A
2:20 PM70 °FScattered clouds.6 mph69%29.95 "HgN/A
1:20 PM72 °FScattered clouds.3 mph65%29.95 "HgN/A
Weather by CustomWeather, © 2014

See weather overviewHow to use our weather pages